DW8050 Weather Reports


Display with metric or nautical units.
time (UTC)temp
F
wind
direction
speed
MPH
gust
MPH
rain 1hr
in
rain 24hr
in
rain mn
in
humidity
%
barometer
mb
20260507222519 46 298 7.0 18.0 0.00 0.00 0.00 66 1006.5
20260507222018 48 284 11.0 18.0 0.00 0.00 0.00 63 1006.7
20260507221539 49 305 7.0 14.0 0.00 0.00 0.00 61 1006.5
20260507221018 50 318 4.0 17.0 0.00 0.00 0.00 63 1006.2
20260507220518 50 23 6.0 20.0 0.00 0.00 0.00 62 1006.2
20260507220033 50 278 11.0 20.0 0.00 0.00 0.00 58 1006.1
20260507215516 50 280 11.0 18.0 0.00 0.00 0.00 59 1006.1
20260507215017 50 272 8.0 17.0 0.00 0.00 0.00 60 1006.2
20260507214532 50 277 8.0 18.0 0.00 0.00 0.00 61 1006.1
20260507214017 49 289 10.0 18.0 0.00 0.00 0.00 60 1006.0
20260507213516 49 284 9.0 14.0 0.00 0.00 0.00 61 1006.0
20260507213033 49 303 9.0 14.0 0.00 0.00 0.00 60 1005.9
20260507212515 49 281 5.0 14.0 0.00 0.00 0.00 62 1006.0
20260507212017 49 259 8.0 13.0 0.00 0.00 0.00 63 1005.9
20260507211530 48 311 8.0 15.0 0.00 0.00 0.00 63 1005.9
20260507211020 48 268 6.0 15.0 0.00 0.00 0.00 64 1006.0
20260507210519 49 296 10.0 20.0 0.00 0.00 0.00 64 1005.9
20260507210030 49 300 10.0 20.0 0.00 0.00 0.00 61 1005.9
20260507205516 49 280 10.0 16.0 0.00 0.00 0.00 63 1005.9
20260507205017 48 293 9.0 17.0 0.00 0.00 0.00 65 1005.9
20260507204532 48 294 10.0 18.0 0.00 0.00 0.00 66 1005.8
20260507204016 48 298 9.0 19.0 0.00 0.00 0.00 65 1005.8
20260507203520 49 309 13.0 19.0 0.00 0.00 0.00 64 1005.7
20260507203051 50 308 10.0 19.0 0.00 0.00 0.00 61 1005.5
20260507202518 50 306 9.0 20.0 0.00 0.00 0.00 61 1005.5
20260507202016 50 291 11.0 20.0 0.00 0.00 0.00 60 1005.4
20260507201532 50 261 11.0 20.0 0.00 0.00 0.00 59 1005.4
20260507201017 50 267 12.0 23.0 0.00 0.00 0.00 56 1005.4
20260507200521 50 293 11.0 23.0 0.00 0.00 0.00 57 1005.4
20260507200035 50 285 13.0 23.0 0.00 0.00 0.00 57 1005.4
20260507195516 49 272 13.0 21.0 0.00 0.00 0.00 60 1005.3
20260507195016 49 284 9.0 18.0 0.00 0.00 0.00 59 1005.2
20260507194535 49 290 8.0 17.0 0.00 0.00 0.00 59 1005.2
20260507194019 49 300 11.0 17.0 0.00 0.00 0.00 59 1005.2
20260507193516 48 285 10.0 21.0 0.00 0.00 0.00 62 1005.2
20260507193030 49 277 11.0 21.0 0.00 0.00 0.00 63 1005.2
20260507192516 49 297 12.0 20.0 0.00 0.00 0.00 61 1005.2
20260507192015 50 291 11.0 20.0 0.00 0.00 0.00 58 1005.2
20260507191536 51 293 12.0 20.0 0.00 0.00 0.00 57 1004.9
20260507191017 52 293 12.0 20.0 0.00 0.00 0.00 53 1004.8
20260507190516 52 264 13.0 23.0 0.00 0.00 0.00 48 1004.7
20260507190032 52 265 13.0 25.0 0.00 0.00 0.00 48 1004.8
20260507185516 52 292 10.0 25.0 0.00 0.00 0.00 48 1004.8
20260507185016 54 277 16.0 25.0 0.00 0.00 0.00 48 1004.7
20260507184530 53 294 16.0 27.0 0.00 0.00 0.00 48 1004.6
20260507184017 52 286 19.0 27.0 0.00 0.00 0.00 51 1004.6
20260507183516 51 284 16.0 24.0 0.00 0.00 0.00 51 1004.4
20260507183035 51 273 14.0 24.0 0.00 0.00 0.00 51 1004.6
20260507182516 51 263 11.0 22.0 0.00 0.00 0.00 54 1004.6
20260507182016 51 273 10.0 19.0 0.00 0.00 0.00 52 1004.6
20260507181535 51 267 10.0 19.0 0.00 0.00 0.00 53 1004.6
20260507181020 51 282 12.0 19.0 0.00 0.00 0.00 54 1004.6
20260507180516 51 273 10.0 14.0 0.00 0.00 0.00 54 1004.6
20260507180035 51 263 9.0 19.0 0.00 0.00 0.00 57 1004.5
20260507175519 51 293 10.0 19.0 0.00 0.00 0.00 55 1004.5
20260507175017 51 281 10.0 18.0 0.00 0.00 0.00 55 1004.5
20260507174540 51 312 9.0 19.0 0.00 0.00 0.00 53 1004.5
20260507174020 51 307 12.0 24.0 0.00 0.00 0.00 50 1004.5
20260507173516 51 260 9.0 24.0 0.00 0.00 0.00 52 1004.4
20260507173052 51 287 16.0 24.0 0.00 0.00 0.00 54 1004.4
20260507172517 51 236 13.0 23.0 0.00 0.00 0.00 53 1004.3
20260507172016 51 270 16.0 23.0 0.00 0.00 0.00 51 1004.4
20260507171540 51 284 14.0 21.0 0.00 0.00 0.00 53 1004.4
20260507171017 51 275 13.0 21.0 0.00 0.00 0.00 53 1004.3
20260507170516 51 264 12.0 21.0 0.00 0.00 0.00 52 1004.3
20260507170038 51 275 13.0 23.0 0.00 0.00 0.00 53 1004.4
20260507165521 51 265 13.0 24.0 0.00 0.01 0.00 52 1004.3
20260507165016 52 268 15.0 24.0 0.00 0.01 0.00 49 1004.3
20260507164534 52 288 15.0 25.0 0.00 0.01 0.00 53 1004.2
20260507164017 53 276 17.0 25.0 0.00 0.01 0.00 50 1004.3
20260507163520 52 266 12.0 24.0 0.00 0.01 0.00 51 1004.2
20260507163032 52 265 13.0 22.0 0.00 0.01 0.00 49 1004.2
20260507162520 53 264 15.0 21.0 0.00 0.01 0.00 51 1004.1
20260507162016 53 261 11.0 24.0 0.00 0.01 0.00 48 1004.1
20260507161543 53 242 15.0 24.0 0.00 0.01 0.00 48 1004.2
20260507161016 54 285 11.0 21.0 0.00 0.01 0.00 48 1004.0
20260507160517 53 234 15.0 20.0 0.00 0.01 0.00 48 1004.0
20260507160030 53 240 14.0 23.0 0.00 0.01 0.00 49 1004.2
20260507155516 53 292 9.0 23.0 0.00 0.05 0.00 50 1004.1
20260507155016 53 278 16.0 23.0 0.00 0.05 0.00 50 1004.1
20260507154534 53 236 15.0 24.0 0.00 0.05 0.00 54 1004.1
20260507154017 53 231 20.0 25.0 0.00 0.05 0.00 58 1004.0
20260507153520 52 236 19.0 26.0 0.00 0.05 0.00 58 1004.1
20260507153033 52 240 20.0 26.0 0.00 0.05 0.00 61 1004.1
20260507152517 51 225 15.0 27.0 0.00 0.05 0.00 63 1004.1
20260507152026 51 244 17.0 27.0 0.00 0.05 0.00 60 1004.2
20260507151531 51 227 18.0 27.0 0.00 0.05 0.00 61 1004.1
20260507151017 50 207 18.0 25.0 0.00 0.05 0.00 61 1004.1
20260507150523 51 226 18.0 25.0 0.00 0.05 0.00 61 1004.2
20260507150037 50 223 17.0 24.0 0.00 0.05 0.00 62 1004.2
20260507145517 50 229 19.0 24.0 0.00 0.10 0.00 62 1004.3
20260507145023 50 222 16.0 25.0 0.00 0.10 0.00 61 1004.3
20260507144532 50 238 17.0 25.0 0.00 0.10 0.00 62 1004.3
20260507144017 50 211 17.0 24.0 0.00 0.10 0.00 63 1004.4
20260507143519 50 231 18.0 24.0 0.00 0.10 0.00 63 1004.3
20260507143043 50 217 16.0 22.0 0.00 0.10 0.00 63 1004.4
20260507142518 49 229 15.0 22.0 0.00 0.10 0.00 62 1004.4
20260507142027 49 237 16.0 23.0 0.00 0.10 0.00 65 1004.5
20260507141546 49 214 16.0 23.0 0.00 0.10 0.00 65 1004.5
20260507141016 49 233 18.0 23.0 0.00 0.10 0.00 64 1004.6
20260507140519 49 225 16.0 21.0 0.00 0.10 0.00 67 1004.5
20260507140035 49 230 16.0 21.0 0.00 0.10 0.00 65 1004.6
20260507135517 49 241 15.0 19.0 0.00 0.13 0.00 67 1004.6
20260507135017 48 236 15.0 19.0 0.00 0.13 0.00 65 1004.6
20260507134535 48 232 15.0 20.0 0.00 0.13 0.00 67 1004.6
20260507134016 48 213 15.0 20.0 0.00 0.13 0.00 67 1004.6
20260507133517 48 240 15.0 19.0 0.00 0.13 0.00 66 1004.6
20260507133047 48 240 14.0 21.0 0.00 0.13 0.00 70 1004.8
20260507132523 47 242 16.0 21.0 0.00 0.13 0.00 68 1004.8
20260507132016 47 258 14.0 21.0 0.00 0.13 0.00 69 1004.8
20260507131537 47 237 16.0 21.0 0.00 0.13 0.00 72 1004.9
20260507131018 46 222 15.0 20.0 0.00 0.13 0.00 73 1004.9
20260507130517 45 229 15.0 20.0 0.00 0.13 0.00 72 1005.0
20260507130036 45 246 15.0 19.0 0.00 0.13 0.00 73 1005.0
20260507125518 44 244 12.0 18.0 0.00 0.13 0.00 76 1005.0
20260507125016 44 229 13.0 18.0 0.00 0.13 0.00 75 1005.1
20260507124532 44 257 10.0 19.0 0.00 0.13 0.00 77 1005.1
20260507124017 44 243 13.0 19.0 0.00 0.13 0.00 75 1005.1
20260507123522 44 237 13.0 18.0 0.00 0.13 0.00 77 1005.2
20260507123038 44 257 12.0 19.0 0.00 0.13 0.00 75 1005.3
20260507122518 43 255 15.0 21.0 0.00 0.13 0.00 75 1005.2
20260507122017 43 260 15.0 21.0 0.00 0.13 0.00 75 1005.2
20260507121530 43 250 14.0 18.0 0.00 0.13 0.00 76 1005.2
20260507121017 43 241 12.0 18.0 0.00 0.13 0.00 79 1005.3
20260507120516 43 246 12.0 18.0 0.00 0.13 0.00 81 1005.3
20260507120037 43 243 13.0 18.0 0.00 0.13 0.00 83 1005.2
20260507115517 43 250 13.0 18.0 0.00 0.13 0.00 83 1005.2
20260507115016 43 235 12.0 18.0 0.00 0.13 0.00 85 1005.2
20260507114542 43 237 13.0 18.0 0.00 0.13 0.00 85 1005.1
20260507114016 44 250 13.0 21.0 0.00 0.13 0.00 85 1005.1
20260507113517 44 250 15.0 21.0 0.00 0.13 0.00 85 1005.3
20260507113036 44 244 13.0 18.0 0.00 0.13 0.00 87 1005.2
20260507112517 44 238 13.0 20.0 0.00 0.13 0.00 88 1005.1
20260507112020 44 242 13.0 20.0 0.00 0.13 0.00 88 1005.0
20260507111532 44 244 13.0 17.0 0.00 0.13 0.00 89 1005.0
20260507111017 43 221 13.0 17.0 0.00 0.13 0.00 90 1004.9
20260507110518 43 238 11.0 14.0 0.00 0.13 0.00 91 1005.0
20260507110039 43 227 10.0 14.0 0.00 0.13 0.00 91 1004.8
20260507105517 43 246 10.0 14.0 0.00 0.13 0.00 91 1004.9
20260507105017 43 235 10.0 13.0 0.00 0.13 0.00 91 1004.8
20260507104531 43 250 11.0 13.0 0.00 0.13 0.00 91 1004.8
20260507104017 43 239 8.0 13.0 0.00 0.13 0.00 91 1004.7
20260507103516 43 244 10.0 12.0 0.00 0.13 0.00 91 1004.7
20260507103043 43 246 8.0 11.0 0.00 0.13 0.00 92 1004.8
20260507102516 43 223 7.0 10.0 0.00 0.13 0.00 92 1004.8
20260507102017 42 221 5.0 9.0 0.00 0.13 0.00 92 1004.9
20260507101538 42 239 6.0 9.0 0.00 0.13 0.00 92 1004.8
20260507101017 42 243 5.0 8.0 0.00 0.13 0.00 92 1005.0
20260507100518 42 232 5.0 10.0 0.00 0.13 0.00 91 1004.9
20260507100037 42 249 6.0 10.0 0.00 0.13 0.00 91 1004.9
20260507095520 42 238 5.0 9.0 0.00 0.13 0.00 91 1004.9
20260507095017 42 236 5.0 9.0 0.00 0.13 0.00 91 1005.0
20260507094536 42 244 6.0 11.0 0.00 0.13 0.00 91 1005.0
20260507094023 42 248 5.0 11.0 0.00 0.13 0.00 91 1005.1
20260507093515 42 244 8.0 11.0 0.00 0.13 0.00 91 1005.3
20260507093032 42 250 6.0 11.0 0.00 0.13 0.00 91 1005.1
20260507092517 42 236 7.0 11.0 0.00 0.13 0.00 91 1005.1
20260507092016 42 240 8.0 12.0 0.00 0.13 0.00 91 1005.0
20260507091535 42 243 7.0 12.0 0.00 0.13 0.00 92 1004.9
20260507091018 42 233 7.0 10.0 0.00 0.13 0.00 92 1005.0
20260507090517 42 229 6.0 9.0 0.00 0.13 0.00 92 1004.9
20260507090035 42 225 4.0 7.0 0.00 0.13 0.00 92 1004.9
20260507085517 42 229 5.0 7.0 0.00 0.13 0.00 92 1004.9
20260507085017 42 212 4.0 7.0 0.00 0.13 0.00 92 1005.0
20260507084539 42 226 4.0 7.0 0.00 0.13 0.00 92 1004.9
20260507084021 42 240 4.0 7.0 0.00 0.13 0.00 92 1005.0
20260507083517 42 223 3.0 5.0 0.00 0.13 0.00 92 1005.1
20260507083033 42 237 3.0 7.0 0.00 0.13 0.00 92 1005.2
20260507082518 42 229 4.0 8.0 0.00 0.13 0.00 92 1005.2
20260507082017 42 234 5.0 8.0 0.00 0.13 0.00 92 1005.2
20260507081537 42 250 4.0 7.0 0.00 0.13 0.00 92 1005.1
20260507081017 42 245 4.0 5.0 0.00 0.13 0.00 92 1005.3
20260507080516 42 258 3.0 5.0 0.00 0.13 0.00 92 1005.3
20260507080041 42 257 3.0 5.0 0.00 0.13 0.00 92 1005.2
20260507075517 42 244 3.0 5.0 0.00 0.13 0.00 92 1005.3
20260507075017 42 251 2.0 4.0 0.00 0.13 0.00 92 1005.4
20260507074530 42 248 2.0 5.0 0.00 0.13 0.00 92 1005.4
20260507074016 42 242 3.0 5.0 0.00 0.13 0.00 92 1005.4
20260507073519 42 240 3.0 5.0 0.00 0.13 0.00 92 1005.3
20260507073031 42 232 2.0 4.0 0.00 0.13 0.00 92 1005.3
20260507072517 42 230 3.0 4.0 0.00 0.13 0.00 92 1005.4
20260507072016 42 237 2.0 7.0 0.00 0.13 0.00 92 1005.3
20260507071537 42 241 3.0 8.0 0.00 0.13 0.00 91 1005.3
20260507071017 42 239 5.0 8.0 0.00 0.13 0.00 92 1005.4
20260507070517 41 254 3.0 5.0 0.00 0.13 0.00 92 1005.5
20260507070044 41 240 2.0 3.0 0.00 0.13 0.00 92 1005.5
20260507065516 41 236 2.0 3.0 0.00 0.13 0.00 92 1005.4
20260507065017 41 244 2.0 3.0 0.00 0.13 0.00 92 1005.4
20260507064544 41 244 2.0 3.0 0.00 0.13 0.00 92 1005.4
20260507064018 41 244 2.0 2.0 0.00 0.13 0.00 92 1005.4
20260507063518 41 244 2.0 4.0 0.00 0.13 0.00 92 1005.5
20260507063036 41 242 2.0 4.0 0.00 0.13 0.00 92 1005.4
20260507062518 41 239 3.0 5.0 0.00 0.13 0.00 91 1005.5
20260507062017 41 237 3.0 5.0 0.00 0.13 0.00 92 1005.6
20260507061532 41 257 2.0 4.0 0.00 0.13 0.00 92 1005.6
20260507061020 42 242 3.0 6.0 0.00 0.13 0.00 91 1005.6
20260507060515 42 233 3.0 6.0 0.00 0.13 0.00 91 1005.6
20260507060032 41 232 4.0 6.0 0.00 0.13 0.00 92 1005.7
20260507055516 41 234 3.0 5.0 0.00 0.13 0.00 92 1005.8
20260507055011 42 227 3.0 4.0 0.00 0.13 0.00 92 1005.8
20260507054530 42 223 3.0 4.0 0.00 0.13 0.00 92 1005.9
20260507054015 41 225 3.0 5.0 0.00 0.13 0.00 92 1006.0
20260507053516 41 221 3.0 5.0 0.00 0.13 0.00 92 1006.1
20260507053032 41 213 3.0 6.0 0.00 0.13 0.00 92 1006.1
20260507052515 41 225 3.0 6.0 0.00 0.13 0.00 92 1006.1
20260507052016 41 228 4.0 6.0 0.00 0.13 0.00 92 1006.1
20260507051532 41 238 4.0 6.0 0.00 0.13 0.00 92 1006.2
20260507051016 41 229 4.0 6.0 0.00 0.13 0.00 91 1006.2
20260507050515 42 227 4.0 6.0 0.00 0.13 0.00 91 1006.4
20260507050033 42 222 4.0 6.0 0.00 0.13 0.00 91 1006.5
20260507045515 42 229 4.0 6.0 0.00 0.13 0.00 91 1006.6
20260507045016 42 235 3.0 5.0 0.00 0.13 0.00 91 1006.6
20260507044530 42 240 3.0 5.0 0.00 0.13 0.00 91 1006.6
20260507044015 42 238 3.0 5.0 0.00 0.13 0.00 91 1006.7
20260507043516 42 229 4.0 5.0 0.00 0.13 0.00 91 1006.6
20260507043031 42 225 3.0 5.0 0.00 0.13 0.00 90 1006.7
20260507042516 42 227 3.0 5.0 0.00 0.13 0.00 90 1006.7
20260507042019 43 222 3.0 6.0 0.00 0.13 0.00 90 1006.8
20260507041533 43 221 4.0 6.0 0.00 0.13 0.00 90 1006.9
20260507041019 43 229 4.0 8.0 0.00 0.13 0.00 90 1006.8
20260507040517 43 221 5.0 8.0 0.00 0.13 0.00 90 1006.9
20260507040037 43 225 6.0 8.0 0.00 0.13 0.00 90 1006.9
20260507035520 43 224 5.0 10.0 0.00 0.13 0.13 90 1007.0
20260507035016 43 234 6.0 10.0 0.00 0.13 0.13 90 1007.0
20260507034539 43 244 6.0 9.0 0.00 0.13 0.13 90 1007.0
20260507034020 43 236 6.0 9.0 0.00 0.13 0.13 89 1007.1
20260507033516 43 242 6.0 9.0 0.00 0.13 0.13 89 1007.1
20260507033043 43 230 6.0 9.0 0.00 0.13 0.13 89 1007.1
20260507032517 43 228 6.0 9.0 0.00 0.13 0.13 89 1007.2
20260507032019 43 231 5.0 9.0 0.00 0.13 0.13 89 1007.1
20260507031550 43 232 5.0 9.0 0.00 0.13 0.13 89 1007.2
20260507031021 43 233 5.0 9.0 0.00 0.13 0.13 89 1007.2
20260507030516 44 232 5.0 9.0 0.00 0.13 0.13 89 1007.3
20260507030033 44 232 6.0 10.0 0.00 0.13 0.13 88 1007.3
20260507025516 44 213 6.0 10.0 0.00 0.13 0.13 88 1007.4
20260507025020 44 235 6.0 10.0 0.00 0.13 0.13 88 1007.4
20260507024534 44 238 6.0 11.0 0.00 0.13 0.13 87 1007.3
20260507024015 44 238 6.0 11.0 0.00 0.13 0.13 87 1007.4
20260507023515 44 227 6.0 9.0 0.00 0.13 0.13 87 1007.5
20260507023030 44 230 6.0 10.0 0.00 0.13 0.13 87 1007.5
20260507022516 44 226 6.0 10.0 0.00 0.13 0.13 88 1007.5
20260507022016 44 229 7.0 10.0 0.00 0.13 0.13 88 1007.6
20260507021530 44 223 6.0 10.0 0.00 0.13 0.13 88 1007.6
20260507021015 44 228 5.0 10.0 0.00 0.13 0.13 88 1007.6
20260507020516 44 233 6.0 9.0 0.00 0.13 0.13 88 1007.7
20260507020030 44 226 6.0 9.0 0.00 0.13 0.13 88 1007.7
20260507015515 44 232 5.0 8.0 0.00 0.13 0.13 88 1007.7
20260507015015 44 219 5.0 7.0 0.00 0.13 0.13 89 1007.8
20260507014541 44 215 3.0 5.0 0.00 0.13 0.13 90 1007.9
20260507014016 44 206 4.0 5.0 0.00 0.13 0.13 90 1007.9
20260507013516 44 206 3.0 5.0 0.00 0.13 0.13 90 1007.9
20260507013039 44 217 3.0 5.0 0.00 0.13 0.13 90 1008.0
20260507012516 44 195 3.0 4.0 0.00 0.13 0.13 90 1007.7
20260507012016 44 196 3.0 4.0 0.00 0.13 0.13 90 1007.8
20260507011536 44 198 2.0 3.0 0.00 0.13 0.13 90 1007.8
20260507011015 44 199 2.0 3.0 0.00 0.13 0.13 90 1007.7
20260507010516 44 200 2.0 3.0 0.00 0.13 0.13 89 1007.7
20260507010039 44 194 3.0 3.0 0.00 0.13 0.13 89 1007.6
20260507005515 45 207 2.0 3.0 0.00 0.13 0.13 88 1007.5
20260507005023 45 208 2.0 3.0 0.00 0.13 0.13 87 1007.5
20260507004532 45 211 2.0 5.0 0.00 0.13 0.13 87 1007.4
20260507004016 45 206 3.0 7.0 0.00 0.13 0.13 86 1007.4
20260507003515 45 192 4.0 7.0 0.00 0.13 0.13 86 1007.3
20260507003030 45 189 4.0 6.0 0.00 0.13 0.13 86 1007.3
20260507002515 45 175 4.0 5.0 0.00 0.13 0.13 86 1007.4
20260507002016 45 200 3.0 5.0 0.00 0.13 0.13 86 1007.3
20260507001535 46 201 3.0 5.0 0.00 0.13 0.13 85 1007.4
20260507001016 46 213 2.0 5.0 0.00 0.13 0.13 85 1007.4
20260507000516 46 213 3.0 6.0 0.00 0.13 0.13 85 1007.2
20260507000034 46 215 4.0 9.0 0.00 0.13 0.13 85 1007.3
20260506235519 46 215 4.0 9.0 0.00 0.13 0.13 85 1007.4
20260506235015 46 217 5.0 9.0 0.00 0.13 0.13 84 1007.3
20260506234530 46 221 4.0 6.0 0.00 0.13 0.13 85 1007.2
20260506234016 46 213 4.0 7.0 0.00 0.13 0.13 85 1007.1
20260506233517 46 221 5.0 7.0 0.00 0.13 0.13 84 1007.2
20260506233031 46 202 4.0 6.0 0.00 0.13 0.13 84 1007.1
20260506232516 46 209 3.0 7.0 0.00 0.13 0.13 85 1007.1
20260506232016 46 220 5.0 7.0 0.00 0.13 0.13 84 1007.2
20260506231535 46 212 5.0 7.0 0.00 0.13 0.13 83 1007.2
20260506231016 46 204 3.0 9.0 0.00 0.13 0.13 84 1007.2
20260506230515 47 234 5.0 10.0 0.00 0.13 0.13 82 1007.2
20260506230033 47 241 7.0 10.0 0.00 0.13 0.13 82 1007.1
20260506225516 47 244 5.0 9.0 0.00 0.13 0.13 81 1007.2
20260506225023 47 242 6.0 10.0 0.00 0.13 0.13 81 1007.2
20260506224534 47 240 8.0 11.0 0.00 0.13 0.13 80 1007.3
20260506224015 47 227 8.0 11.0 0.00 0.13 0.13 80 1007.3
20260506223515 47 223 6.0 9.0 0.00 0.13 0.13 82 1007.4
20260506223031 47 213 6.0 9.0 0.00 0.13 0.13 83 1007.3